Radiation Dose at Monitoring Post of Fukushima Daini Nuclear Power Station
Date,Time,MP-1(microSv/h),MP-2(microSv/h),MP-3(microSv/h),MP-4(microSv/h),MP-5(microSv/h),MP-6(microSv/h),MP-7(microSv/h),Wind Direction,Wind Velocity(m/s),Rain
2014/12/26,00:00,0.597,0.382,0.636,0.577,0.569,0.261,0.235,north,4.7,No
2014/12/26,00:10,0.598,0.381,0.636,0.576,0.567,0.261,0.234,north,3.5,No
2014/12/26,00:20,0.598,0.382,0.637,0.577,0.568,0.260,0.234,north,2.2,No
2014/12/26,00:30,0.598,0.382,0.637,0.575,0.569,0.260,0.235,north,1.9,No
2014/12/26,00:40,0.598,0.383,0.636,0.578,0.569,0.260,0.234,north,1.1,No
2014/12/26,00:50,0.598,0.383,0.636,0.577,0.567,0.259,0.234,north,1.0,No
2014/12/26,01:00,0.596,0.383,0.635,0.577,0.569,0.259,0.234,-,CALM,No
2014/12/26,01:10,0.596,0.383,0.637,0.576,0.570,0.260,0.233,south,0.5,No
2014/12/26,01:20,0.597,0.381,0.637,0.580,0.567,0.260,0.235,south,2.9,No
2014/12/26,01:30,0.598,0.383,0.636,0.575,0.568,0.261,0.234,south-southwest,3.1,No
2014/12/26,01:40,0.596,0.382,0.637,0.576,0.569,0.261,0.234,south-southwest,3.5,No
2014/12/26,01:50,0.597,0.383,0.637,0.577,0.568,0.261,0.234,south-southwest,3.0,No
2014/12/26,02:00,0.596,0.382,0.638,0.578,0.566,0.261,0.234,south-southwest,4.2,No
2014/12/26,02:10,0.597,0.383,0.637,0.578,0.568,0.260,0.234,southwest,3.9,No
2014/12/26,02:20,0.598,0.383,0.635,0.577,0.567,0.262,0.235,southwest,3.9,No
2014/12/26,02:30,0.596,0.382,0.636,0.575,0.568,0.262,0.234,southwest,4.7,No
2014/12/26,02:40,0.596,0.382,0.637,0.577,0.569,0.260,0.235,west-southwest,3.5,No
2014/12/26,02:50,0.597,0.383,0.638,0.578,0.569,0.260,0.234,west,1.7,No
2014/12/26,03:00,0.597,0.382,0.635,0.576,0.568,0.260,0.234,west,1.5,No
2014/12/26,03:10,0.596,0.382,0.636,0.576,0.568,0.260,0.234,west-northwest,2.2,No
2014/12/26,03:20,0.596,0.382,0.636,0.577,0.568,0.261,0.233,west,2.8,No
2014/12/26,03:30,0.597,0.382,0.636,0.577,0.567,0.260,0.235,west-southwest,3.9,No
2014/12/26,03:40,0.596,0.382,0.636,0.577,0.569,0.261,0.234,west-southwest,4.5,No
2014/12/26,03:50,0.595,0.381,0.636,0.577,0.567,0.260,0.234,west,3.3,No
2014/12/26,04:00,0.596,0.382,0.636,0.577,0.570,0.260,0.234,west-southwest,1.9,No
2014/12/26,04:10,0.598,0.383,0.636,0.578,0.567,0.260,0.234,west-southwest,1.7,No
2014/12/26,04:20,0.598,0.382,0.638,0.577,0.569,0.261,0.234,west-southwest,2.2,No
2014/12/26,04:30,0.595,0.381,0.636,0.577,0.569,0.260,0.234,southwest,1.6,No
2014/12/26,04:40,0.596,0.383,0.638,0.577,0.567,0.260,0.233,west,3.1,No
2014/12/26,04:50,0.597,0.382,0.637,0.578,0.569,0.260,0.234,west,3.1,No
2014/12/26,05:00,0.598,0.382,0.635,0.579,0.569,0.258,0.235,west-southwest,2.7,No
2014/12/26,05:10,0.596,0.382,0.636,0.575,0.569,0.259,0.234,west-northwest,1.8,No
2014/12/26,05:20,0.598,0.381,0.637,0.577,0.569,0.259,0.234,west,0.8,No
2014/12/26,05:30,0.596,0.381,0.635,0.578,0.567,0.260,0.234,northwest,0.6,No
2014/12/26,05:40,0.594,0.383,0.637,0.577,0.568,0.260,0.234,-,CALM,No
2014/12/26,05:50,0.596,0.381,0.636,0.576,0.570,0.260,0.235,-,CALM,No
2014/12/26,06:00,0.596,0.382,0.637,0.578,0.569,0.259,0.234,west-southwest,1.0,No
2014/12/26,06:10,0.596,0.382,0.635,0.576,0.568,0.261,0.235,-,CALM,No
2014/12/26,06:20,0.597,0.381,0.637,0.576,0.568,0.260,0.233,west-northwest,0.6,No
2014/12/26,06:30,0.599,0.382,0.634,0.576,0.570,0.260,0.233,-,CALM,No
2014/12/26,06:40,0.598,0.383,0.636,0.577,0.566,0.260,0.234,-,CALM,No
2014/12/26,06:50,0.594,0.381,0.637,0.578,0.568,0.259,0.234,-,CALM,No
2014/12/26,07:00,0.595,0.383,0.637,0.578,0.568,0.259,0.233,southeast,0.7,No
2014/12/26,07:10,0.596,0.383,0.635,0.578,0.568,0.260,0.233,-,CALM,No
2014/12/26,07:20,0.597,0.381,0.635,0.578,0.568,0.260,0.234,east,0.6,No
2014/12/26,07:30,0.597,0.382,0.636,0.576,0.567,0.260,0.234,south-southeast,1.3,No
2014/12/26,07:40,0.596,0.382,0.638,0.575,0.570,0.259,0.232,south,1.9,No
2014/12/26,07:50,0.596,0.381,0.637,0.576,0.568,0.260,0.233,south,0.9,No
2014/12/26,08:00,0.596,0.384,0.636,0.578,0.569,0.258,0.233,south-southeast,1.1,No
2014/12/26,08:10,0.595,0.381,0.636,0.577,0.567,0.260,0.234,south,1.5,No
2014/12/26,08:20,0.595,0.381,0.636,0.578,0.567,0.260,0.233,south,1.1,No
2014/12/26,08:30,0.598,0.382,0.636,0.578,0.568,0.260,0.236,south,1.7,No
2014/12/26,08:40,0.595,0.383,0.637,0.579,0.569,0.259,0.233,south,2.2,No
2014/12/26,08:50,0.597,0.382,0.636,0.579,0.570,0.258,0.233,south-southwest,2.2,No
2014/12/26,09:00,0.595,0.382,0.639,0.577,0.571,0.258,0.233,-,CALM,No
2014/12/26,09:10,0.596,0.382,0.638,0.577,0.569,0.259,0.233,southwest,0.6,No
2014/12/26,09:20,0.597,0.382,0.636,0.579,0.570,0.259,0.232,northwest,1.5,No
2014/12/26,09:30,0.598,0.382,0.637,0.578,0.567,0.260,0.234,west,1.9,No
2014/12/26,09:40,0.598,0.382,0.637,0.580,0.570,0.260,0.233,west-northwest,0.8,No
2014/12/26,09:50,0.596,0.383,0.637,0.580,0.568,0.259,0.234,west-southwest,3.3,No
2014/12/26,10:00,0.597,0.382,0.637,0.577,0.569,0.259,0.234,north,1.2,No
2014/12/26,10:10,0.597,0.382,0.639,0.580,0.571,0.259,0.234,west-northwest,2.3,No
2014/12/26,10:20,0.597,0.384,0.640,0.579,0.569,0.260,0.233,west,3.1,No
2014/12/26,10:30,0.598,0.383,0.640,0.578,0.570,0.260,0.234,west-northwest,3.2,No
2014/12/26,10:40,0.599,0.384,0.638,0.578,0.570,0.259,0.235,west,7.3,No
2014/12/26,10:50,0.598,0.384,0.637,0.580,0.568,0.260,0.234,west,4.8,No
2014/12/26,11:00,0.597,0.383,0.638,0.578,0.570,0.261,0.233,west,6.8,No
2014/12/26,11:10,0.598,0.384,0.638,0.579,0.570,0.261,0.233,west,6.9,No
2014/12/26,11:20,0.599,0.383,0.638,0.580,0.569,0.260,0.234,west,5.3,No
2014/12/26,11:30,0.597,0.383,0.637,0.581,0.569,0.261,0.233,west,5.8,No
2014/12/26,11:40,0.600,0.383,0.639,0.579,0.570,0.260,0.234,west,8.2,No
2014/12/26,11:50,0.599,0.384,0.640,0.580,0.569,0.261,0.235,west,5.5,No
2014/12/26,12:00,0.596,0.384,0.638,0.580,0.570,0.261,0.234,west-northwest,6.6,No
2014/12/26,12:10,0.599,0.384,0.638,0.580,0.570,0.261,0.234,west-northwest,6.3,No
2014/12/26,12:20,0.598,0.384,0.639,0.580,0.569,0.261,0.234,west-northwest,8.7,No
2014/12/26,12:30,0.598,0.385,0.640,0.582,0.570,0.263,0.233,west-northwest,7.3,No
2014/12/26,12:40,0.599,0.384,0.639,0.580,0.569,0.262,0.234,north-northwest,6.4,No
2014/12/26,12:50,0.598,0.385,0.638,0.580,0.570,0.261,0.233,northwest,3.3,No
2014/12/26,13:00,0.600,0.384,0.640,0.580,0.569,0.261,0.235,west-northwest,5.6,No
2014/12/26,13:10,0.599,0.386,0.637,0.581,0.570,0.261,0.235,northwest,5.9,No
2014/12/26,13:20,0.598,0.385,0.639,0.581,0.570,0.261,0.234,west-northwest,4.3,No
2014/12/26,13:30,0.599,0.384,0.637,0.580,0.569,0.263,0.234,west,5.6,No
2014/12/26,13:40,0.600,0.383,0.638,0.580,0.571,0.262,0.235,west,6.0,No
2014/12/26,13:50,0.600,0.383,0.639,0.581,0.569,0.261,0.235,west-northwest,3.0,No
2014/12/26,14:00,0.602,0.387,0.637,0.581,0.569,0.261,0.235,northwest,2.8,No
2014/12/26,14:10,0.599,0.384,0.638,0.581,0.570,0.262,0.234,northwest,2.2,No
2014/12/26,14:20,0.601,0.385,0.640,0.580,0.569,0.261,0.235,west-northwest,4.7,No
2014/12/26,14:30,0.600,0.384,0.637,0.579,0.571,0.261,0.235,west,3.9,No
2014/12/26,14:40,0.600,0.385,0.639,0.581,0.570,0.261,0.236,northwest,5.2,No
2014/12/26,14:50,0.602,0.385,0.638,0.580,0.570,0.260,0.234,west,4.5,No
2014/12/26,15:00,0.599,0.384,0.638,0.580,0.569,0.260,0.235,northwest,2.7,No
2014/12/26,15:10,0.598,0.383,0.638,0.579,0.570,0.261,0.236,west-northwest,4.5,No
2014/12/26,15:20,0.599,0.384,0.640,0.580,0.569,0.260,0.236,northwest,0.8,No
2014/12/26,15:30,0.599,0.385,0.638,0.579,0.570,0.262,0.235,west-northwest,1.8,No
2014/12/26,15:40,0.601,0.383,0.639,0.580,0.569,0.262,0.236,north,1.4,No
2014/12/26,15:50,0.601,0.385,0.639,0.580,0.571,0.261,0.235,west,1.4,No
2014/12/26,16:00,0.599,0.386,0.640,0.581,0.570,0.260,0.235,west-northwest,0.5,No
2014/12/26,16:10,0.599,0.384,0.638,0.580,0.569,0.262,0.235,north-northwest,1.1,No
2014/12/26,16:20,0.598,0.385,0.638,0.579,0.569,0.261,0.236,north,1.1,No
2014/12/26,16:30,0.599,0.383,0.639,0.581,0.567,0.262,0.236,north,2.2,No
2014/12/26,16:40,0.598,0.382,0.638,0.579,0.572,0.262,0.235,west-northwest,3.1,No
2014/12/26,16:50,0.601,0.383,0.638,0.579,0.570,0.262,0.235,west,3.4,No
2014/12/26,17:00,0.599,0.382,0.639,0.579,0.568,0.262,0.235,west,1.8,No
2014/12/26,17:10,0.600,0.383,0.637,0.580,0.569,0.263,0.235,north-northeast,1.2,No
2014/12/26,17:20,0.600,0.384,0.638,0.579,0.570,0.262,0.235,west,1.9,No
2014/12/26,17:30,0.599,0.384,0.638,0.579,0.569,0.263,0.235,west,2.7,No
2014/12/26,17:40,0.600,0.383,0.637,0.580,0.569,0.262,0.235,west-northwest,1.1,No
2014/12/26,17:50,0.599,0.382,0.638,0.578,0.569,0.262,0.236,south-southwest,1.5,No
2014/12/26,18:00,0.598,0.382,0.639,0.580,0.571,0.263,0.234,southwest,1.0,No
2014/12/26,18:10,0.598,0.383,0.637,0.578,0.569,0.261,0.234,south-southwest,2.8,No
2014/12/26,18:20,0.598,0.382,0.638,0.578,0.569,0.262,0.235,south-southwest,2.1,Yes
2014/12/26,18:30,0.601,0.383,0.639,0.582,0.570,0.263,0.236,southwest,3.1,Yes
2014/12/26,18:40,0.598,0.384,0.637,0.581,0.570,0.263,0.236,south-southwest,4.8,Yes
2014/12/26,18:50,0.602,0.384,0.639,0.582,0.571,0.263,0.237,southwest,5.2,Yes
2014/12/26,19:00,0.599,0.384,0.638,0.580,0.570,0.264,0.236,south-southwest,5.0,Yes
2014/12/26,19:10,0.598,0.384,0.638,0.579,0.570,0.264,0.237,south-southwest,4.5,No
2014/12/26,19:20,0.599,0.383,0.638,0.580,0.570,0.264,0.236,southwest,4.2,No
2014/12/26,19:30,0.599,0.384,0.638,0.582,0.571,0.264,0.236,southwest,4.2,No
2014/12/26,19:40,0.600,0.383,0.639,0.580,0.570,0.264,0.235,southwest,5.0,No
2014/12/26,19:50,0.599,0.384,0.638,0.580,0.571,0.262,0.235,west-southwest,4.6,No
2014/12/26,20:00,0.599,0.382,0.636,0.580,0.569,0.263,0.235,west-southwest,3.3,No
2014/12/26,20:10,0.599,0.384,0.639,0.580,0.569,0.261,0.236,west,5.4,No
2014/12/26,20:20,0.599,0.382,0.637,0.577,0.568,0.262,0.235,west,4.5,No
2014/12/26,20:30,0.599,0.383,0.637,0.579,0.569,0.262,0.235,west,3.9,No
2014/12/26,20:40,0.598,0.382,0.636,0.578,0.569,0.260,0.235,west,6.7,No
2014/12/26,20:50,0.598,0.383,0.637,0.577,0.569,0.262,0.235,west,6.8,No
2014/12/26,21:00,0.599,0.383,0.636,0.578,0.568,0.262,0.235,west-northwest,4.8,No
2014/12/26,21:10,0.598,0.382,0.637,0.578,0.570,0.260,0.235,west,4.7,No
2014/12/26,21:20,0.599,0.384,0.637,0.579,0.570,0.260,0.233,west,3.9,No
2014/12/26,21:30,0.600,0.382,0.638,0.578,0.569,0.262,0.234,northwest,3.1,No
2014/12/26,21:40,0.599,0.382,0.636,0.577,0.569,0.261,0.235,west-northwest,4.9,No
2014/12/26,21:50,0.598,0.383,0.637,0.577,0.568,0.260,0.235,west-northwest,6.1,No
2014/12/26,22:00,0.600,0.382,0.637,0.578,0.567,0.261,0.234,northwest,2.5,No
2014/12/26,22:10,0.599,0.383,0.637,0.577,0.570,0.260,0.235,north,2.8,No
2014/12/26,22:20,0.597,0.383,0.640,0.578,0.569,0.261,0.235,north-northwest,2.0,No
2014/12/26,22:30,0.597,0.382,0.637,0.579,0.568,0.261,0.235,north,1.4,No
2014/12/26,22:40,0.598,0.382,0.637,0.577,0.568,0.260,0.235,north,2.5,No
2014/12/26,22:50,0.597,0.382,0.637,0.578,0.569,0.261,0.235,-,CALM,No
2014/12/26,23:00,0.599,0.382,0.638,0.578,0.569,0.262,0.235,north,0.7,No
2014/12/26,23:10,0.598,0.382,0.637,0.579,0.567,0.260,0.236,north,1.4,No
2014/12/26,23:20,0.598,0.383,0.637,0.577,0.568,0.262,0.235,west-northwest,1.5,No
2014/12/26,23:30,0.598,0.382,0.636,0.577,0.568,0.260,0.234,north-northeast,1.5,No
2014/12/26,23:40,0.598,0.382,0.637,0.578,0.569,0.261,0.235,north-northeast,1.9,No
2014/12/26,23:50,0.598,0.382,0.636,0.577,0.568,0.261,0.236,north-northeast,1.5,No
